Location: Roanoke
(37.2710°N, 79.9420°W)
Time: 03:17:45
(UTC-05:00)

Courier 1B Rocket - Pass Details

Date: 23 November 2019
Orbit: 920 x 1202 km, 28.2° (Epoch: 12 December)

Event Time Altitude Azimuth Distance (km) Brightness Sun altitude
Rises 14:26:51 0° 246° (WSW) 3,671 9.0 23.5°
Reaches altitude 10° 14:29:37 10° 238° (WSW) 2,763 8.8 23.2°
Maximum altitude 14:35:45 38° 172° (S) 1,546 7.0 22.4°
Drops below altitude 10° 14:42:19 10° 107° (ESE) 2,957 7.4 21.6°
Sets 14:45:22 0° 100° (E) 3,959 7.9 21.2°
